Weather Roundup
Issued by NWS

Home | Current Version | Previous Version | Text Only | Print | Product List | Glossary On
Versions: 1 2 3 4 5 6 7 8 9 10 11 12 13 14 15 16 17 18 19 20 21 22 23 24 25 26 27 28 29 30 31 32 33 34 35 36 37 38 39 40 41 42 43 44 45 46 47 48 49 50
790
NZUS93 KARX 212059
HRRWXR

CURRENT HOURLY OBSERVATIONS ACROSS
MUCH OF THE UPPER MISSISSIPPI VALLEY
NATIONAL WEATHER SERVICE LA CROSSE WI
300 PM CST SAT JAN 21 2017


...SOUTHEAST MINNESOTA...


CITY           SKY/WX    TMP DP  RH WIND       PRES   REMARKS
ROCHESTER      CLOUDY    35  35 100 CALM      29.39R FOG
ROCHESTER/MAYO CLOUDY    39  39 100 W3        29.40R
WINONA         FOG       36  36 100 SE3       29.42R VSB 1/2
AUSTIN         FOG       36  36 100 SW3       29.40R VSB<1/4
ALBERT LEA     FOG       37  37 100 CALM      29.39R VSB 1/2
DODGE CENTER   FOG       36  36 100 CALM      29.39R VSB 1/4
PRESTON        FOG       36  35  97 S7        29.41R VSB<1/4 WCI  30
OWATONNA       FOG       37  36  93 CALM      29.40R VSB 1/4
FARIBAULT      NOT AVBL
$$

...ELSEWHERE IN MINNESOTA...


CITY           SKY/WX    TMP DP  RH WIND       PRES   REMARKS
MINNEAPOLIS    CLOUDY    38  35  89 NE3       29.40S
INTNL FALLS    LGT RAIN  35  33  92 E7        29.48R WCI  29
DULUTH         DRIZZLE   35  34  96 E14       29.43R FOG     WCI  26
RED WING       DRIZZLE   37  36  93 CALM      29.40R
REDWOOD FALLS  FOG       36  35  96 E3        29.39R VSB 1/4
MANKATO        FOG       37  36  96 CALM      29.41R VSB 1/4
WORTHINGTON    LGT RAIN  34  33  96 W15       29.38R VSB 1/4 WCI  24
FAIRMONT       CLOUDY    38  37  97 SW3       29.40R FOG
$$

...SOUTHWEST WISCONSIN...


CITY           SKY/WX    TMP DP  RH WIND       PRES   REMARKS
LA CROSSE      CLOUDY    42  39  89 S7        29.42R FOG
PRAIRIE DU CHI CLOUDY    43  42  97 CALM      29.44R FOG
BOSCOBEL       CLOUDY    44  42  93 CALM      29.44R FOG
LONE ROCK      FOG       42  41  96 CALM      29.44R VSB 3/4
PLATTEVILLE    CLOUDY    44  44 100 SW7       29.45R
FORT MC COY    CLOUDY    41  40  97 CALM      29.42R
MAUSTON-NEW LI FOG       40  40 100 CALM      29.41R VSB 1/2
VIROQUA        CLOUDY    39  39 100 S3        29.42R VSB 1
WIS DELLS      FOG       41  41  99 CALM      29.43R VSB<1/4
$$

...ELSEWHERE IN WISCONSIN...


CITY           SKY/WX    TMP DP  RH WIND       PRES   REMARKS
MILWAUKEE      MOSUNNY   51  45  79 SE7       29.44R
MADISON        CLOUDY    45  43  93 SW6       29.44R FOG
GREEN BAY      FOG       38  37  97 NE3       29.45R VSB 1/4
EAU CLAIRE     FOG       36  36 100 CALM      29.40R VSB 1/4
BLACK RVR FLS  CLOUDY    41  41 100 CALM      29.41R FOG
MEDFORD        DRZL/FOG  35  35  99 E3        29.40R VSB 1/2
WAUSAU         FOG       35  35 100 SE8       29.41R VSB 1/4 WCI  29
WIS RAPIDS     FOG       37  37 100 SE7       29.43R VSB 1/2 WCI  32
MARSHFIELD     FOG       36  35  96 E5        29.40R VSB 1/4 WCI  32
RICE LAKE      FOG       37  36  98 CALM      29.42R VSB 1
$$

...NORTHEAST IOWA...


CITY           SKY/WX    TMP DP  RH WIND       PRES   REMARKS
WATERLOO       CLOUDY    45  42  89 SW10      29.44R
DUBUQUE        CLOUDY    43  43 100 SW7       29.45R FOG
DECORAH        FOG       39  39 100 S6        29.41R VSB<1/4 WCI  35
MASON CITY     FOG       37  37 100 S6        29.42R VSB 1/4 WCI  32
CHARLES CITY   FOG       39  39 100 SW7       29.42R VSB<1/4 WCI  34
OELWEIN        FOG       41  41 100 S8        29.44R VSB<1/4
$$

...ELSEWHERE IN IOWA...


CITY           SKY/WX    TMP DP  RH WIND       PRES   REMARKS
DES MOINES     CLOUDY    46  40  79 SW15      29.46R
IOWA CITY      CLOUDY    46  43  89 SW8       29.48S
FORT DODGE     CLOUDY    41  37  87 SW8       29.43R
MARSHALLTOWN   CLOUDY    46  44  93 SW10      29.44R
CEDAR RAPIDS   CLOUDY    44  43  96 S8        29.45R FOG
$$

...NORTHERN ILLINOIS...


CITY           SKY/WX    TMP DP  RH WIND       PRES   REMARKS
CHICAGO-OHARE  MOSUNNY   58  44  60 SW13      29.46R
CHICAGO-MIDWAY MOSUNNY   60  46  59 S16G24    29.47R
MOLINE         MOSUNNY   50  43  77 SW10      29.47R
ROCKFORD       MOSUNNY   54  43  66 SW10      29.47R
PEORIA         SUNNY     59  41  51 SW14G23   29.48R
$$

NOTE: "FAIR" INDICATES FEW OR NO CLOUDS BELOW 12,000 FEET WITH NO
SIGNIFICANT WEATHER AND/OR OBSTRUCTIONS TO VISIBILITY. WIND
SPEEDS ARE IN MILES-PER-HOUR.




USA.gov is the U.S. government's official web portal to all federal, state and local government web resources and services.